Location: Central Falls
(41.8900°N, 71.3929°W)
Time: 14:59:38
(UTC+00:00)

Vanguard 1 Rocket - Pass Details

Date: 07 December 2023
Orbit: 654 x 4218 km, 34.3° (Epoch: 24 February)

Event Time Altitude Azimuth Distance (km) Brightness Sun altitude
Rises 11:43:51 0° 263° (W) 7,949 11.7 -3.4°
Reaches altitude 10° 11:49:58 10° 261° (W) 6,506 11.3 -2.4°
Maximum altitude 12:08:06 62° 187° (S) 2,367 9.7 0.5°
Drops below altitude 10° 12:17:16 10° 109° (ESE) 3,498 12.3 2.0°
Sets 12:19:33 0° 106° (ESE) 4,177 12.5 2.3°
